Location: ????????
(54.9045°N, 39.1041°E)
Time: 02:51:41
(UTC+00:00)

Meteor 2-10 - Pass Details

Date: 14 April 2024
Orbit: 738 x 866 km, 81.2° (Epoch: 25 May)

Event Time Altitude Azimuth Distance (km) Brightness Sun altitude
Rises 00:26:36 0° 344° (NNW) 3,371 7.7 -15.1°
Reaches altitude 10° 00:28:59 10° 343° (NNW) 2,452 6.9 -14.9°
Maximum altitude 00:34:33 73° 260° (W) 890 4.2 -14.3°
Drops below altitude 10° 00:40:12 10° 176° (S) 2,495 6.3 -13.7°
Sets 00:42:39 0° 175° (S) 3,435 7.0 -13.4°
